Flag for Brazil Weather past 2 weeks in Fortaleza, Ceará, Brazil

Now
79 °F

Passing clouds.


Feels Like: 81 °F
Forecast: 76 / 86 °F
Wind: 20 mph from East

Location: Fortaleza Aeropor-To

Current Time: Sep 15, 2014 at 1:38:20 AM

Latest Report: Sep 15, 2014 at 1:00 AM


Visibility: N/A

Pressure: 29.95 "Hg

Humidity: 70%

Dew point: 68 °F

Location of FortalezaLocation

Historic Weather in Fortaleza — Graph

°F

Fortaleza temperature yesterday

Maximum temperature yesterday: 86 °F (at 10:00 AM)
Minimum temperature yesterday: 77 °F (at 5:00 AM)
Average temperature yesterday: 81 °F

Past Weeks' High & Low Weather Summary

 TemperatureHumidityPressure
High88 °F (Sep 7, 11:00 AM)89% (Sep 13, 5:00 AM)30.15 "Hg (Sep 13, 5:00 AM)
Low73 °F (Sep 2, 5:00 AM)35% (Aug 31, 10:00 AM)29.80 "Hg (Sep 11, 3:00 PM)
Average80 °F65%29.93 "Hg
* Reported Midnight between Aug 30 and Aug 31 — Midnight between Sep 14 and Sep 15, Fortaleza, Weather by CustomWeather, © 2014

Note: Actual official high and low records may vary slightly from our data, if they occured in-between our weather recording intervals... More about our weather records

Advertising

Fortaleza weather history for previous 24 hours

 ConditionsComfort  
Time TempWeatherWind HumidityBarometerVisibility
12:00 AM
Sep 15
79 °FPassing clouds.17 mph70%29.95 "HgN/A
11:00 PM
Sep 14
79 °FPassing clouds.7 mph70%29.95 "HgN/A
10:00 PM79 °FPassing clouds.18 mph70%29.95 "HgN/A
9:00 PM79 °FPassing clouds.18 mph74%29.95 "HgN/A
8:00 PM79 °FPassing clouds.15 mph74%29.92 "HgN/A
7:00 PM79 °FPassing clouds.14 mph74%29.92 "HgN/A
6:00 PM81 °FClear.12 mph70%29.89 "Hg10 mi
5:00 PM82 °FSunny.18 mph62%29.86 "Hg10 mi
4:00 PM82 °FSunny.20 mph58%29.83 "Hg10 mi
3:00 PM84 °FSunny.21 mph55%29.83 "Hg10 mi
2:00 PM84 °FSunny.21 mph51%29.86 "Hg10 mi
1:00 PM84 °FSunny.18 mph51%29.89 "Hg10 mi
12:00 PM86 °FSunny.21 mph49%29.89 "Hg10 mi
11:00 AM86 °FPassing clouds.21 mph43%29.92 "HgN/A
10:00 AM86 °FSunny.18 mph49%29.95 "Hg10 mi
9:00 AM84 °FPassing clouds.17 mph48%29.98 "HgN/A
8:00 AM81 °FPassing clouds.17 mph62%29.98 "HgN/A
7:00 AM79 °FPassing clouds.15 mph65%29.95 "HgN/A
6:00 AM77 °FPassing clouds.15 mph69%29.95 "HgN/A
5:00 AM77 °FPassing clouds.13 mph74%29.92 "HgN/A
4:00 AM79 °FPassing clouds.15 mph65%29.92 "HgN/A
3:00 AM79 °FPartly cloudy.17 mph65%29.92 "HgN/A
2:00 AM79 °FPassing clouds.18 mph70%29.92 "HgN/A
1:00 AM79 °FPartly cloudy.16 mph74%29.92 "HgN/A
Weather by CustomWeather, © 2014

See weather overviewHow to use our weather pages